{"data":{"norad_id":47226,"intl_designator":"2020-090A","name":"FALCON EYE 2","alt_names":[],"object_type":"PAYLOAD","status":"ACTIVE","operator":null,"country":"UAE","launch_date":"2020-12-02","launch_site_code":"FRGUI","launch_vehicle":null,"mission":null,"orbit_class":"UNKNOWN","rcs_meters":null,"size_class":null,"mass_kg":null,"dimensions":null,"purposes":[],"wikipedia_slug":null,"has_3d_model":false,"image_url":null,"decayed_at":null,"tle_current":{"epoch":"2026-09-20T22:10:26.088384Z","epoch_age_seconds":42853,"freshness":"FRESH","line1":"1 47226U 20090A   26263.92391306  .00000355  00000+0  47924-4 0  9996","line2":"2 47226  97.8502 337.3136 0001303  77.7656 282.3704 14.84920442314445","mean_motion":14.84920442,"eccentricity":0.0001303,"inclination_deg":97.8502,"raan_deg":337.3136,"arg_perigee_deg":77.7656,"mean_anomaly_deg":282.3704,"bstar":4.7924e-5,"rev_number":31444,"period_min":96.974892342414,"perigee_km":612.92453993326,"apogee_km":614.74664799125,"semimajor_km":6991.9725939623,"source":"CELESTRAK","updated_at":"2026-09-21T09:00:07.473854Z"}}}